Other Surface Observations
Issued by NWS

Current Version | Previous Version | Text Only | Print | Product List | Glossary On
Versions: 1 2 3 4 5 6 7 8 9 10 11 12 13 14 15 16 17 18 19 20 21 22 23 24 25 26 27 28 29 30 31 32 33 34 35 36 37 38 39 40 41 42 43 44 45 46 47 48 49 50
000
SXUS52 KTAE 201718
OSOTAE
OSOTAE
North Florida/South Alabama/Southwest Georgia Weather Roundup
National Weather Service Tallahassee Florida
100 PM EDT WED AUG 20 2014

Note: "fair" indicates few or no clouds below 12,000 feet with no
significant weather and/or obstructions to visibility.

!FLZ017-115-028-034-025-201800
...North Florida...

CITY           SKY/WX    TMP DP  RH WIND       PRES   REMARKS
TALLAHASSEE    MOSUNNY   92  73  53 NW9G16    30.09F HX 100
APALACHICOLA   MOSUNNY   88  76  67 W5        30.10S HX  99
PERRY          MOSUNNY   88  73  62 N9        30.08F HX  96
CROSS CITY       N/A     84  73  69 N10       30.10R HX  90
HOMERVILLE     FAIR      90  75  62 W7        30.07F HX 100
JACKSONVILLE   MOSUNNY   90  72  55 W8        30.05F HX  97
$$

!FLZ112-006-005-002-011-201800
...Florida Panhandle...

CITY           SKY/WX    TMP DP  RH WIND       PRES   REMARKS
MARIANNA       MOSUNNY   89  77  67 W6        30.08F HX 101
BONIFAY        FAIR      90  76  63 VRB3      30.09F HX 101
PANAMA CITY NW FAIR      91  73  55 W6        30.08F HX  99
TYNDALL AFB    MOSUNNY   88  78  71 W10       30.11S HX 101
TYND DRONE APT FAIR      88  79  75 VRB5G15   30.08F HX 102
DE FUNIAK SPR  FAIR      89  74  61 W6        30.10F HX  97
EGLIN AFB      MOSUNNY   90  76  63 W8        30.09F HX 102
DESTIN         SUNNY     90  78  68 SW6       30.09F HX 104
HURLBURT       MOSUNNY   89  74  60 SW9       30.09S HX  98
CRESTVIEW      MOSUNNY   92  73  53 W8        30.11F HX 100
PENSACOLA      MOSUNNY   89  70  53 S5        30.09F HX  94
$$

!ALZ063-066-201800
...South Alabama...

CITY           SKY/WX    TMP DP  RH WIND       PRES   REMARKS
DOTHAN         SUNNY     89  74  60 VRB5      30.13F HX  98
OZARK CAIRNS   SUNNY     89  75  63 W5        30.09F HX  98
FT RUCKER HELI SUNNY     90  74  59 NW6       30.08F HX  99
RUCKER HELI 3  FAIR      89  74  60 VRB6      30.12F HX  98
RUCKER HELI 2  FAIR      91  74  57 VRB6      30.09F HX 100
FLORALA APT    MOSUNNY   91  74  57 VRB3      30.11F HX 100
ANDALUSIA      MOSUNNY   94  75  54 VRB3      30.10S HX 105
TROY           SUNNY     90  73  57 VRB7      30.10F HX  98
EUFALA         FAIR      91  75  59 CALM      30.07F HX 102
MOBILE         PTSUNNY   88  74  63 SW8       30.11F HX  96
$$

!GAZ120>161-201800
...Southwest and South Central Georgia...

CITY           SKY/WX    TMP DP  RH WIND       PRES   REMARKS
THOMASVILLE    FAIR      90  73  58 NW7       30.09F HX  98
BAINBRIDGE     SUNNY     95  79  59 NW9       30.08F HX 112
MOODY AFB      PTSUNNY   89  73  59 W7        30.07F HX  97
VALDOSTA       MOSUNNY   90  71  53 VRB3      30.08F HX  96
MOULTRIE       MOSUNNY   88  73  62 W6        30.09F HX  96
BLAKELY        MOSUNNY   91  73  55 NW5         N/A  HX 100
ALBANY         MOSUNNY   91  74  57 VRB7      30.08F HX 100
TIFTON         FAIR      88  70  55 W7        30.07F HX  92
FITZGERALD     FAIR      93  71  49 W5        30.08F HX  99
CORDELE        FAIR      91  73  56 SW9       30.07F HX  99
AMERICUS       FAIR      90  72  55 NW7       30.08F HX  96
$$

!GMZ750-755-770-775-201800
...Coastal and Buoy Obs...

STATION/POSITION TIME  TEMP    WIND        PRES    VSBY  WAVE
                       AIR SEA DIR/SP/G                  HT/PER
                 (UTC) (F)     (DEG/KT/KT) (MB)    (MI)  (FT/S)
KEATON BEACH     1700   85     260/  9/ 10 1019.1F
CEDAR KEY        1700   87     280/  8/ 10 1019.4F
C TOWER          1700   82     320/  6/  7 1019.5R
APALACHICOLA BUO 1700   85 86  330/  6/  8 1019.7F         1/ 5
PANAMA CITY BUOY 1551   86 87  290/  4/  6 1019.8R         1/ 3
MOBILE BUOY      1608   87 90   50/  2/  2 1019.7S
ORANGE BCH AL BU 1700   84 86  290/  6/  6 1019.4F         1/ 4
$$



USA.gov is the U.S. government's official web portal to all federal, state and local government web resources and services.